DBR519 KCRQ-KBFI

Flight info

Callsign DBR519
Flight time 2h 27m
Altitude 40000
Route PADRZ2 OROSZ AVE J189 BTG OLM2
Aircraft CL30/M-SDE3FGJ4P2RWXY/SD1

Departure

Time 2026-04-29 21:47
Airport McClellan-Palomar Airport (KCRQ)

Arrival

Time 2026-04-30 00:14
Airport King County International Airport - Boeing Field (KBFI)
Time Latitude Longitude Altitude Speed Heading
2026-04-29 21:35 33.12684 -117.27784 339 ft 0 kts 256°
2026-04-29 21:41 33.12683 -117.27787 339 ft 3 kts 256°
2026-04-29 21:41 33.12698 -117.27807 339 ft 6 kts 348°
2026-04-29 21:42 33.12747 -117.27815 339 ft 6 kts 21°
2026-04-29 21:42 33.12759 -117.27776 339 ft 5 kts 79°
2026-04-29 21:42 33.12767 -117.27729 339 ft 7 kts 79°
2026-04-29 21:42 33.12783 -117.27628 339 ft 15 kts 79°
2026-04-29 21:43 33.12801 -117.27512 339 ft 13 kts 79°
2026-04-29 21:43 33.12819 -117.27397 339 ft 14 kts 79°
2026-04-29 21:43 33.12837 -117.27286 339 ft 13 kts 80°
2026-04-29 21:43 33.12882 -117.27234 339 ft 7 kts 347°
2026-04-29 21:44 33.12891 -117.27237 339 ft 0 kts 347°
2026-04-29 21:44 33.12892 -117.27237 339 ft 0 kts 347°
2026-04-29 21:45 33.12897 -117.27238 339 ft 3 kts 347°
2026-04-29 21:45 33.12933 -117.27247 339 ft 5 kts 347°
2026-04-29 21:45 33.12945 -117.27264 339 ft 2 kts 259°
2026-04-29 21:45 33.12945 -117.27265 339 ft 0 kts 259°
2026-04-29 21:46 33.12942 -117.27288 339 ft 21 kts 259°
2026-04-29 21:46 33.12847 -117.27875 339 ft 128 kts 259°
2026-04-29 21:46 33.12626 -117.29258 782 ft 203 kts 259°
2026-04-29 21:47 33.12346 -117.31090 1345 ft 231 kts 259°
2026-04-29 21:47 33.12087 -117.32894 1821 ft 216 kts 260°
2026-04-29 21:47 33.11827 -117.34658 2323 ft 218 kts 259°
2026-04-29 21:47 33.11562 -117.36482 2837 ft 235 kts 261°
2026-04-29 21:48 33.11288 -117.38466 3477 ft 247 kts 261°
2026-04-29 21:48 33.11004 -117.40533 4113 ft 255 kts 261°
2026-04-29 21:48 33.10713 -117.42635 4740 ft 261 kts 261°
2026-04-29 21:48 33.10410 -117.44798 5368 ft 266 kts 261°
2026-04-29 21:49 33.10102 -117.46976 5996 ft 270 kts 261°
2026-04-29 21:49 33.09782 -117.49219 6630 ft 274 kts 261°
2026-04-29 21:49 33.09463 -117.51447 7252 ft 277 kts 261°
2026-04-29 21:49 33.09133 -117.53739 7883 ft 280 kts 260°
2026-04-29 21:50 33.08803 -117.56031 8508 ft 283 kts 260°
2026-04-29 21:50 33.08468 -117.58347 9132 ft 286 kts 260°
2026-04-29 21:50 33.08124 -117.60716 9767 ft 289 kts 260°
2026-04-29 21:50 33.07779 -117.63098 10413 ft 294 kts 260°
2026-04-29 21:51 33.07426 -117.65528 11222 ft 306 kts 259°
2026-04-29 21:51 33.07064 -117.68062 12032 ft 314 kts 261°
2026-04-29 21:51 33.07967 -117.73160 13642 ft 329 kts 295°
2026-04-29 21:52 33.09228 -117.75438 14447 ft 335 kts 304°
2026-04-29 21:52 33.10786 -117.77551 15259 ft 339 kts 310°
2026-04-29 21:52 33.12492 -117.79493 16058 ft 344 kts 314°
2026-04-29 21:52 33.14323 -117.81370 16865 ft 348 kts 316°
2026-04-29 21:53 33.16196 -117.83181 17663 ft 351 kts 317°
2026-04-29 21:53 33.18125 -117.85031 18472 ft 355 kts 317°
2026-04-29 21:53 33.20042 -117.86875 19268 ft 358 kts 317°
2026-04-29 21:53 33.21984 -117.88747 20066 ft 362 kts 316°
2026-04-29 21:54 33.23955 -117.90653 20871 ft 365 kts 316°
2026-04-29 21:54 33.25943 -117.92582 21676 ft 369 kts 316°
2026-04-29 21:54 33.27931 -117.94517 22472 ft 373 kts 315°
2026-04-29 21:54 33.29974 -117.96510 23282 ft 378 kts 315°
2026-04-29 21:55 33.32008 -117.98499 24079 ft 382 kts 315°
2026-04-29 21:55 33.34068 -118.00513 24878 ft 386 kts 315°
2026-04-29 21:55 33.36172 -118.02573 25687 ft 389 kts 314°
2026-04-29 21:55 33.38260 -118.04612 26485 ft 390 kts 313°
2026-04-29 21:56 33.40373 -118.06678 27290 ft 391 kts 313°
2026-04-29 21:56 33.42476 -118.08735 28090 ft 391 kts 312°
2026-04-29 21:56 33.44588 -118.10801 28893 ft 390 kts 311°
2026-04-29 21:56 33.46665 -118.12833 29687 ft 388 kts 310°
2026-04-29 21:57 33.48752 -118.14878 30488 ft 385 kts 309°
2026-04-29 21:57 33.50816 -118.16908 31287 ft 381 kts 309°
2026-04-29 21:57 33.52840 -118.18895 32080 ft 377 kts 308°
2026-04-29 21:57 33.54869 -118.20864 32861 ft 375 kts 309°
2026-04-29 21:58 33.57033 -118.22683 33461 ft 382 kts 314°
2026-04-29 21:58 33.59302 -118.24326 33979 ft 388 kts 317°
2026-04-29 21:58 33.61698 -118.25878 34487 ft 392 kts 319°
2026-04-29 21:58 33.64137 -118.27335 34987 ft 395 kts 321°
2026-04-29 21:59 33.66621 -118.28737 35486 ft 396 kts 322°
2026-04-29 21:59 33.69145 -118.30112 35988 ft 396 kts 323°
2026-04-29 21:59 33.71677 -118.31462 36489 ft 396 kts 323°
2026-04-29 21:59 33.74180 -118.32773 36985 ft 394 kts 323°
2026-04-29 22:00 33.76708 -118.34074 37485 ft 392 kts 323°
2026-04-29 22:00 33.79192 -118.35339 37979 ft 390 kts 324°
2026-04-29 22:00 33.81708 -118.36611 38481 ft 387 kts 324°
2026-04-29 22:00 33.84163 -118.37847 38975 ft 383 kts 323°
2026-04-29 22:01 33.86625 -118.39085 39474 ft 379 kts 323°
2026-04-29 22:01 33.89019 -118.40289 39893 ft 377 kts 324°
2026-04-29 22:01 33.91470 -118.41537 40019 ft 383 kts 324°
2026-04-29 22:01 33.93924 -118.42798 40074 ft 391 kts 324°
2026-04-29 22:02 33.99058 -118.45442 40074 ft 410 kts 324°
2026-04-29 22:02 34.04400 -118.48183 40072 ft 426 kts 325°
2026-04-29 22:03 34.09981 -118.51029 40066 ft 441 kts 326°
2026-04-29 22:03 34.15700 -118.53932 40053 ft 453 kts 326°
2026-04-29 22:04 34.21557 -118.56896 40045 ft 461 kts 327°
2026-04-29 22:04 34.27491 -118.59884 40047 ft 460 kts 327°
2026-04-29 22:05 34.32397 -118.62336 40051 ft 460 kts 327°
2026-04-29 22:06 34.42089 -118.67513 40076 ft 448 kts 320°
2026-04-29 22:06 34.47134 -118.71790 40091 ft 439 kts 312°
2026-04-29 22:07 34.51066 -118.75716 40101 ft 437 kts 310°
2026-04-29 22:07 34.55626 -118.80534 40106 ft 436 kts 309°
2026-04-29 22:08 34.60172 -118.85424 40113 ft 436 kts 309°
2026-04-29 22:08 34.64717 -118.90319 40118 ft 436 kts 309°
2026-04-29 22:09 34.69242 -118.95177 40118 ft 437 kts 309°
2026-04-29 22:09 34.73811 -119.00065 40116 ft 438 kts 310°
2026-04-29 22:10 34.78385 -119.04945 40120 ft 438 kts 310°
2026-04-29 22:10 34.82965 -119.09826 40112 ft 438 kts 310°
2026-04-29 22:11 34.87553 -119.14714 40105 ft 438 kts 310°
2026-04-29 22:11 34.92138 -119.19601 40096 ft 438 kts 310°
2026-04-29 22:12 34.96722 -119.24492 40086 ft 438 kts 310°
2026-04-29 22:12 35.01305 -119.29387 40081 ft 439 kts 311°
2026-04-29 22:13 35.05907 -119.34307 40076 ft 439 kts 311°
2026-04-29 22:13 35.10477 -119.39201 40071 ft 439 kts 311°
2026-04-29 22:14 35.15089 -119.44147 40067 ft 439 kts 311°
2026-04-29 22:14 35.19667 -119.49067 40062 ft 440 kts 311°
2026-04-29 22:15 35.24253 -119.54001 40060 ft 440 kts 312°
2026-04-29 22:15 35.28848 -119.58942 40059 ft 440 kts 312°
2026-04-29 22:16 35.33437 -119.63895 40065 ft 440 kts 312°
2026-04-29 22:16 35.38038 -119.68869 40070 ft 440 kts 313°
2026-04-29 22:17 35.42621 -119.73842 40068 ft 440 kts 313°
2026-04-29 22:17 35.47211 -119.78816 40058 ft 441 kts 313°
2026-04-29 22:18 35.51802 -119.83795 40044 ft 441 kts 313°
2026-04-29 22:18 35.56369 -119.88754 40064 ft 441 kts 314°
2026-04-29 22:19 35.60950 -119.93733 40090 ft 440 kts 314°
2026-04-29 22:19 35.66000 -119.98070 40069 ft 449 kts 327°
2026-04-29 22:20 35.71777 -120.01135 40090 ft 453 kts 334°
2026-04-29 22:20 35.77730 -120.03680 40089 ft 456 kts 338°
2026-04-29 22:21 35.83781 -120.06083 40073 ft 456 kts 338°
2026-04-29 22:21 35.89817 -120.08470 40077 ft 456 kts 338°
2026-04-29 22:22 35.95842 -120.10858 40065 ft 455 kts 338°
2026-04-29 22:22 36.01806 -120.13272 40077 ft 454 kts 337°
2026-04-29 22:23 36.07830 -120.15723 40070 ft 454 kts 338°
2026-04-29 22:23 36.13819 -120.18141 40078 ft 454 kts 338°
2026-04-29 22:24 36.19811 -120.20572 40059 ft 454 kts 338°
2026-04-29 22:24 36.25777 -120.23024 40070 ft 453 kts 338°
2026-04-29 22:25 36.31767 -120.25510 40066 ft 452 kts 338°
2026-04-29 22:25 36.37701 -120.27992 40057 ft 452 kts 338°
2026-04-29 22:26 36.43653 -120.30513 40060 ft 451 kts 338°
2026-04-29 22:26 36.49594 -120.32997 40065 ft 451 kts 338°
2026-04-29 22:27 36.55542 -120.35457 40048 ft 451 kts 339°
2026-04-29 22:27 36.61481 -120.37940 40059 ft 449 kts 339°
2026-04-29 22:28 36.67418 -120.40429 40069 ft 448 kts 339°
2026-04-29 22:28 36.73316 -120.42893 40068 ft 447 kts 339°
2026-04-29 22:29 36.79187 -120.45358 40069 ft 446 kts 339°
2026-04-29 22:29 36.85060 -120.47829 40069 ft 446 kts 339°
2026-04-29 22:30 36.90934 -120.50302 40069 ft 444 kts 339°
2026-04-29 22:30 36.96773 -120.52764 40065 ft 443 kts 340°
2026-04-29 22:31 37.02607 -120.55240 40064 ft 442 kts 340°
2026-04-29 22:31 37.08418 -120.57710 40063 ft 441 kts 340°
2026-04-29 22:32 37.14227 -120.60182 40156 ft 443 kts 340°
2026-04-29 22:32 37.17157 -120.61431 40378 ft 442 kts 340°
2026-04-29 22:32 37.20044 -120.62659 40620 ft 440 kts 340°
2026-04-29 22:32 37.22946 -120.63895 40869 ft 439 kts 340°
2026-04-29 22:33 37.25816 -120.65118 41116 ft 437 kts 340°
2026-04-29 22:33 37.28713 -120.66351 41369 ft 436 kts 339°
2026-04-29 22:33 37.31551 -120.67561 41613 ft 435 kts 339°
2026-04-29 22:33 37.34422 -120.68788 41863 ft 433 kts 339°
2026-04-29 22:34 37.37255 -120.70000 42111 ft 431 kts 339°
2026-04-29 22:34 37.40112 -120.71223 42361 ft 430 kts 339°
2026-04-29 22:34 37.42920 -120.72427 42608 ft 428 kts 339°
2026-04-29 22:34 37.45726 -120.73630 42826 ft 428 kts 339°
2026-04-29 22:35 37.48543 -120.74840 42959 ft 429 kts 339°
2026-04-29 22:35 37.54230 -120.77288 43072 ft 435 kts 339°
2026-04-29 22:36 37.59989 -120.79773 43064 ft 442 kts 339°
2026-04-29 22:36 37.65816 -120.82289 43062 ft 442 kts 339°
2026-04-29 22:37 37.71596 -120.84786 43062 ft 438 kts 339°
2026-04-29 22:37 37.77335 -120.87268 43064 ft 436 kts 339°
2026-04-29 22:38 37.83068 -120.89753 43067 ft 436 kts 339°
2026-04-29 22:38 37.88830 -120.92256 43070 ft 437 kts 339°
2026-04-29 22:39 37.94542 -120.94741 43073 ft 437 kts 339°
2026-04-29 22:39 38.00282 -120.97244 43072 ft 436 kts 339°
2026-04-29 22:40 38.06057 -120.99589 43072 ft 436 kts 344°
2026-04-29 22:40 38.12000 -121.01121 43079 ft 435 kts 348°
2026-04-29 22:41 38.17986 -121.02264 43075 ft 435 kts 350°
2026-04-29 22:41 38.23985 -121.03282 43074 ft 434 kts 350°
2026-04-29 22:42 38.29939 -121.04257 43076 ft 434 kts 351°
2026-04-29 22:42 38.35930 -121.05236 43078 ft 433 kts 351°
2026-04-29 22:43 38.41903 -121.06219 43075 ft 433 kts 350°
2026-04-29 22:43 38.47883 -121.07211 43072 ft 433 kts 350°
2026-04-29 22:44 38.53841 -121.08206 43070 ft 432 kts 350°
2026-04-29 22:44 38.59793 -121.09206 43068 ft 432 kts 350°
2026-04-29 22:45 38.65754 -121.10212 43065 ft 432 kts 350°
2026-04-29 22:45 38.71715 -121.11222 43073 ft 432 kts 350°
2026-04-29 22:46 38.77672 -121.12233 43091 ft 431 kts 350°
2026-04-29 22:46 38.83598 -121.13242 43098 ft 431 kts 350°
2026-04-29 22:47 38.89532 -121.14255 43104 ft 431 kts 350°
2026-04-29 22:47 38.95493 -121.15275 43111 ft 431 kts 350°
2026-04-29 22:48 39.01442 -121.16295 43108 ft 431 kts 350°
2026-04-29 22:48 39.07393 -121.17317 43099 ft 431 kts 350°
2026-04-29 22:49 39.13302 -121.18333 43094 ft 431 kts 350°
2026-04-29 22:49 39.19249 -121.19358 43095 ft 431 kts 350°
2026-04-29 22:50 39.25194 -121.20383 43096 ft 430 kts 350°
2026-04-29 22:50 39.31106 -121.21406 43092 ft 430 kts 350°
2026-04-29 22:51 39.37037 -121.22436 43083 ft 430 kts 350°
2026-04-29 22:51 39.45902 -121.23979 43080 ft 429 kts 350°
2026-04-29 22:52 39.51821 -121.25013 43083 ft 428 kts 350°
2026-04-29 22:52 39.57732 -121.26053 43099 ft 428 kts 350°
2026-04-29 22:53 39.63626 -121.27081 43102 ft 428 kts 350°
2026-04-29 22:53 39.69527 -121.28110 43101 ft 429 kts 350°
2026-04-29 22:54 39.75425 -121.29143 43100 ft 429 kts 350°
2026-04-29 22:54 39.81348 -121.30179 43102 ft 428 kts 350°
2026-04-29 22:55 39.87241 -121.31208 43110 ft 428 kts 350°
2026-04-29 22:55 39.93127 -121.32237 43111 ft 428 kts 350°
2026-04-29 22:56 39.99025 -121.33280 43102 ft 428 kts 350°
2026-04-29 22:56 40.04895 -121.34322 43101 ft 427 kts 350°
2026-04-29 22:57 40.10799 -121.35365 43102 ft 427 kts 350°
2026-04-29 22:57 40.16672 -121.36410 43103 ft 427 kts 350°
2026-04-29 22:58 40.22562 -121.37457 43103 ft 426 kts 350°
2026-04-29 22:58 40.28434 -121.38504 43103 ft 426 kts 350°
2026-04-29 22:59 40.34290 -121.39539 43104 ft 426 kts 350°
2026-04-29 22:59 40.40197 -121.40587 43101 ft 426 kts 350°
2026-04-29 23:00 40.46046 -121.41627 43100 ft 426 kts 350°
2026-04-29 23:00 40.51910 -121.42669 43100 ft 425 kts 350°
2026-04-29 23:01 40.57759 -121.43723 43115 ft 425 kts 349°
2026-04-29 23:01 40.63600 -121.44780 43111 ft 425 kts 350°
2026-04-29 23:02 40.69459 -121.45837 43112 ft 425 kts 349°
2026-04-29 23:02 40.75354 -121.46911 43112 ft 425 kts 349°
2026-04-29 23:03 40.81202 -121.47971 43114 ft 425 kts 349°
2026-04-29 23:03 40.87040 -121.49025 43115 ft 425 kts 349°
2026-04-29 23:04 40.92889 -121.50094 43117 ft 424 kts 349°
2026-04-29 23:04 40.98730 -121.51162 43118 ft 424 kts 349°
2026-04-29 23:05 41.04565 -121.52234 43119 ft 423 kts 349°
2026-04-29 23:05 41.10390 -121.53303 43122 ft 423 kts 349°
2026-04-29 23:06 41.16227 -121.54363 43124 ft 423 kts 350°
2026-04-29 23:06 41.22063 -121.55424 43126 ft 423 kts 350°
2026-04-29 23:07 41.27903 -121.56483 43126 ft 422 kts 350°
2026-04-29 23:07 41.33689 -121.57536 43133 ft 422 kts 349°
2026-04-29 23:08 41.39516 -121.58605 43147 ft 422 kts 350°
2026-04-29 23:08 41.45328 -121.59680 43152 ft 422 kts 349°
2026-04-29 23:09 41.51139 -121.60752 43154 ft 422 kts 350°
2026-04-29 23:09 41.56973 -121.61826 43158 ft 422 kts 350°
2026-04-29 23:10 41.62773 -121.62910 43160 ft 422 kts 349°
2026-04-29 23:10 41.68581 -121.63989 43161 ft 422 kts 349°
2026-04-29 23:11 41.73400 -121.64884 43159 ft 421 kts 349°
2026-04-29 23:11 41.80188 -121.66148 43144 ft 421 kts 349°
2026-04-29 23:12 41.85948 -121.67227 43145 ft 420 kts 349°
2026-04-29 23:12 41.91735 -121.68315 43146 ft 420 kts 349°
2026-04-29 23:13 41.96578 -121.69226 43147 ft 421 kts 349°
2026-04-29 23:13 42.02369 -121.70316 43149 ft 421 kts 349°
2026-04-29 23:14 42.08158 -121.71409 43149 ft 420 kts 349°
2026-04-29 23:14 42.13952 -121.72528 43149 ft 420 kts 349°
2026-04-29 23:15 42.19715 -121.73755 43146 ft 420 kts 348°
2026-04-29 23:15 42.25496 -121.75038 43148 ft 420 kts 348°
2026-04-29 23:16 42.31256 -121.76341 43147 ft 420 kts 348°
2026-04-29 23:16 42.37004 -121.77654 43147 ft 420 kts 348°
2026-04-29 23:17 42.42761 -121.78974 43150 ft 420 kts 348°
2026-04-29 23:17 42.48507 -121.80286 43153 ft 420 kts 348°
2026-04-29 23:18 42.54274 -121.81603 43155 ft 420 kts 348°
2026-04-29 23:18 42.60016 -121.82926 43156 ft 419 kts 348°
2026-04-29 23:19 42.65746 -121.84251 43154 ft 419 kts 348°
2026-04-29 23:19 42.71494 -121.85579 43154 ft 419 kts 348°
2026-04-29 23:20 42.77240 -121.86911 43158 ft 419 kts 348°
2026-04-29 23:20 42.82992 -121.88248 43159 ft 419 kts 348°
2026-04-29 23:21 42.88731 -121.89576 43165 ft 419 kts 348°
2026-04-29 23:21 42.94467 -121.90906 43166 ft 419 kts 348°
2026-04-29 23:22 43.00214 -121.92242 43169 ft 419 kts 348°
2026-04-29 23:22 43.05983 -121.93580 43172 ft 419 kts 348°
2026-04-29 23:23 43.11731 -121.94919 43178 ft 419 kts 348°
2026-04-29 23:23 43.17445 -121.96249 43184 ft 419 kts 348°
2026-04-29 23:24 43.23196 -121.97583 43187 ft 419 kts 348°
2026-04-29 23:24 43.28936 -121.98924 43198 ft 419 kts 348°
2026-04-29 23:25 43.34676 -122.00268 43204 ft 419 kts 348°
2026-04-29 23:25 43.40425 -122.01617 43208 ft 419 kts 348°
2026-04-29 23:26 43.46171 -122.02977 43217 ft 419 kts 348°
2026-04-29 23:26 43.51908 -122.04336 43221 ft 418 kts 348°
2026-04-29 23:27 43.57640 -122.05698 43226 ft 418 kts 348°
2026-04-29 23:27 43.63359 -122.07054 43228 ft 419 kts 348°
2026-04-29 23:28 43.69082 -122.08413 43227 ft 419 kts 348°
2026-04-29 23:28 43.74836 -122.09785 43230 ft 419 kts 348°
2026-04-29 23:29 43.80579 -122.11164 43230 ft 419 kts 348°
2026-04-29 23:29 43.86326 -122.12534 43232 ft 419 kts 348°
2026-04-29 23:30 43.92047 -122.13911 43227 ft 419 kts 348°
2026-04-29 23:30 43.97783 -122.15293 43223 ft 419 kts 348°
2026-04-29 23:31 44.03524 -122.16678 43222 ft 419 kts 348°
2026-04-29 23:31 44.09257 -122.18054 43222 ft 419 kts 348°
2026-04-29 23:32 44.15002 -122.19441 43227 ft 419 kts 348°
2026-04-29 23:32 44.20737 -122.20831 43228 ft 419 kts 348°
2026-04-29 23:33 44.26479 -122.22205 43228 ft 419 kts 348°
2026-04-29 23:33 44.32185 -122.23587 43231 ft 419 kts 348°
2026-04-29 23:34 44.37928 -122.24984 43230 ft 419 kts 348°
2026-04-29 23:34 44.43657 -122.26385 43229 ft 419 kts 348°
2026-04-29 23:35 44.49402 -122.27789 43230 ft 418 kts 348°
2026-04-29 23:35 44.55133 -122.29200 43230 ft 418 kts 348°
2026-04-29 23:36 44.60859 -122.30596 43228 ft 418 kts 348°
2026-04-29 23:36 44.66592 -122.31997 43226 ft 418 kts 348°
2026-04-29 23:37 44.72321 -122.33402 43227 ft 418 kts 348°
2026-04-29 23:37 44.78026 -122.34813 43238 ft 418 kts 348°
2026-04-29 23:38 44.83721 -122.36229 43237 ft 418 kts 347°
2026-04-29 23:38 44.89452 -122.37656 43238 ft 418 kts 347°
2026-04-29 23:39 44.95168 -122.39093 43231 ft 418 kts 347°
2026-04-29 23:39 45.00794 -122.40517 43227 ft 418 kts 347°
2026-04-29 23:40 45.06512 -122.41966 43228 ft 418 kts 348°
2026-04-29 23:40 45.12228 -122.43396 43227 ft 418 kts 348°
2026-04-29 23:41 45.17964 -122.44827 43231 ft 418 kts 347°
2026-04-29 23:41 45.23706 -122.46252 43228 ft 418 kts 347°
2026-04-29 23:42 45.26567 -122.46966 42984 ft 423 kts 348°
2026-04-29 23:42 45.29458 -122.47685 42508 ft 426 kts 347°
2026-04-29 23:42 45.32380 -122.48414 42010 ft 421 kts 347°
2026-04-29 23:42 45.35219 -122.49124 41515 ft 415 kts 347°
2026-04-29 23:43 45.38055 -122.49830 41013 ft 408 kts 347°
2026-04-29 23:43 45.40839 -122.50526 40512 ft 401 kts 347°
2026-04-29 23:43 45.43532 -122.51202 40018 ft 393 kts 347°
2026-04-29 23:43 45.46210 -122.51876 39516 ft 386 kts 346°
2026-04-29 23:44 45.48847 -122.52541 39014 ft 381 kts 346°
2026-04-29 23:44 45.51419 -122.53192 38518 ft 376 kts 346°
2026-04-29 23:44 45.53990 -122.53845 38014 ft 371 kts 346°
2026-04-29 23:44 45.56507 -122.54487 37517 ft 372 kts 346°
2026-04-29 23:45 45.59077 -122.55146 37014 ft 374 kts 346°
2026-04-29 23:45 45.61651 -122.55806 36514 ft 377 kts 347°
2026-04-29 23:45 45.64239 -122.56470 36018 ft 384 kts 347°
2026-04-29 23:45 45.66888 -122.57149 35521 ft 390 kts 347°
2026-04-29 23:46 45.69585 -122.57838 35019 ft 392 kts 347°
2026-04-29 23:46 45.72240 -122.58511 34526 ft 393 kts 347°
2026-04-29 23:46 45.74929 -122.59187 34026 ft 392 kts 348°
2026-04-29 23:46 45.77622 -122.59859 33524 ft 391 kts 348°
2026-04-29 23:47 45.80285 -122.60521 33026 ft 389 kts 348°
2026-04-29 23:47 45.82970 -122.61188 32521 ft 387 kts 348°
2026-04-29 23:47 45.85605 -122.61843 32023 ft 386 kts 348°
2026-04-29 23:47 45.88266 -122.62504 31518 ft 384 kts 348°
2026-04-29 23:48 45.90863 -122.63150 31022 ft 382 kts 349°
2026-04-29 23:48 45.93483 -122.63803 30520 ft 380 kts 349°
2026-04-29 23:48 45.96054 -122.64444 30024 ft 378 kts 349°
2026-04-29 23:48 45.98644 -122.65091 29523 ft 376 kts 349°
2026-04-29 23:49 46.01237 -122.65738 29018 ft 374 kts 349°
2026-04-29 23:49 46.03778 -122.66374 28520 ft 371 kts 349°
2026-04-29 23:49 46.06327 -122.67013 28017 ft 369 kts 349°
2026-04-29 23:49 46.08834 -122.67642 27520 ft 367 kts 349°
2026-04-29 23:50 46.11318 -122.68265 27023 ft 364 kts 349°
2026-04-29 23:50 46.13823 -122.68894 26520 ft 362 kts 349°
2026-04-29 23:50 46.18754 -122.70135 25520 ft 358 kts 349°
2026-04-29 23:51 46.21188 -122.70749 25022 ft 356 kts 349°
2026-04-29 23:51 46.23617 -122.71362 24523 ft 354 kts 349°
2026-04-29 23:51 46.26059 -122.71978 24018 ft 352 kts 350°
2026-04-29 23:51 46.28447 -122.72581 23522 ft 351 kts 349°
2026-04-29 23:52 46.30860 -122.73191 23018 ft 349 kts 350°
2026-04-29 23:52 46.33224 -122.73790 22522 ft 348 kts 350°
2026-04-29 23:52 46.35615 -122.74396 22018 ft 346 kts 350°
2026-04-29 23:52 46.37961 -122.74991 21548 ft 344 kts 350°
2026-04-29 23:53 46.40338 -122.75594 21090 ft 343 kts 350°
2026-04-29 23:53 46.42684 -122.76191 20639 ft 342 kts 350°
2026-04-29 23:53 46.45011 -122.76783 20191 ft 341 kts 350°
2026-04-29 23:53 46.47356 -122.77380 19738 ft 340 kts 350°
2026-04-29 23:54 46.49673 -122.77970 19289 ft 339 kts 350°
2026-04-29 23:54 46.51969 -122.78555 18842 ft 337 kts 350°
2026-04-29 23:54 46.54286 -122.79147 18390 ft 336 kts 351°
2026-04-29 23:54 46.56605 -122.79739 17936 ft 335 kts 351°
2026-04-29 23:55 46.58870 -122.80319 17491 ft 334 kts 351°
2026-04-29 23:55 46.61165 -122.80906 17039 ft 333 kts 351°
2026-04-29 23:55 46.63458 -122.81493 16585 ft 332 kts 351°
2026-04-29 23:55 46.65717 -122.82072 16137 ft 331 kts 351°
2026-04-29 23:56 46.67972 -122.82650 15688 ft 330 kts 351°
2026-04-29 23:56 46.70214 -122.83226 15240 ft 329 kts 351°
2026-04-29 23:56 46.72461 -122.83803 14790 ft 327 kts 351°
2026-04-29 23:56 46.74713 -122.84382 14338 ft 326 kts 351°
2026-04-29 23:57 46.76929 -122.84952 13890 ft 325 kts 351°
2026-04-29 23:57 46.79166 -122.85528 13437 ft 324 kts 351°
2026-04-29 23:57 46.81369 -122.86096 13115 ft 321 kts 351°
2026-04-29 23:57 46.83579 -122.86666 13013 ft 320 kts 351°
2026-04-29 23:58 46.85752 -122.87228 12989 ft 320 kts 351°
2026-04-29 23:58 46.87940 -122.87794 12987 ft 320 kts 351°
2026-04-29 23:58 46.90137 -122.88362 12990 ft 321 kts 351°
2026-04-29 23:58 46.92344 -122.88934 12991 ft 321 kts 351°
2026-04-29 23:59 46.94554 -122.89237 12989 ft 320 kts
2026-04-29 23:59 46.96758 -122.88716 12995 ft 320 kts 15°
2026-04-29 23:59 46.98820 -122.87539 12995 ft 321 kts 26°
2026-04-29 23:59 47.00729 -122.85883 12983 ft 321 kts 33°
2026-04-30 00:00 47.02528 -122.83896 12762 ft 323 kts 38°
2026-04-30 00:00 47.04241 -122.81761 12512 ft 321 kts 41°
2026-04-30 00:00 47.05889 -122.79595 12268 ft 320 kts 42°
2026-04-30 00:00 47.07544 -122.77373 12011 ft 319 kts 42°
2026-04-30 00:01 47.09170 -122.75187 11762 ft 318 kts 43°
2026-04-30 00:01 47.10789 -122.73022 11514 ft 317 kts 42°
2026-04-30 00:01 47.12413 -122.70870 11262 ft 308 kts 42°
2026-04-30 00:01 47.13988 -122.68802 11007 ft 298 kts 42°
2026-04-30 00:02 47.15516 -122.66810 10754 ft 292 kts 41°
2026-04-30 00:02 47.17013 -122.64870 10506 ft 288 kts 42°
2026-04-30 00:02 47.18513 -122.62933 10255 ft 285 kts 42°
2026-04-30 00:02 47.20009 -122.61006 9999 ft 283 kts 42°
2026-04-30 00:03 47.21476 -122.59119 9753 ft 282 kts 42°
2026-04-30 00:03 47.22940 -122.57237 9504 ft 281 kts 42°
2026-04-30 00:03 47.24421 -122.55332 9251 ft 280 kts 42°
2026-04-30 00:03 47.25871 -122.53464 9002 ft 279 kts 42°
2026-04-30 00:04 47.27340 -122.51581 8749 ft 278 kts 41°
2026-04-30 00:04 47.28742 -122.49636 8485 ft 277 kts 52°
2026-04-30 00:04 47.29526 -122.47090 8255 ft 276 kts 74°
2026-04-30 00:04 47.29867 -122.44322 8009 ft 276 kts 83°
2026-04-30 00:05 47.30048 -122.41503 7759 ft 274 kts 85°
2026-04-30 00:05 47.30170 -122.38687 7507 ft 273 kts 86°
2026-04-30 00:05 47.30269 -122.35919 7263 ft 272 kts 87°
2026-04-30 00:05 47.30362 -122.33132 7008 ft 270 kts 87°
2026-04-30 00:06 47.30462 -122.30560 6797 ft 235 kts 84°
2026-04-30 00:06 47.30843 -122.28328 6543 ft 216 kts 72°
2026-04-30 00:06 47.31362 -122.26323 6297 ft 207 kts 68°
2026-04-30 00:06 47.31912 -122.24376 6041 ft 201 kts 67°
2026-04-30 00:07 47.32454 -122.22489 5780 ft 197 kts 67°
2026-04-30 00:07 47.32982 -122.20656 5529 ft 194 kts 67°
2026-04-30 00:07 47.33500 -122.18848 5282 ft 193 kts 67°
2026-04-30 00:07 47.34054 -122.17054 5017 ft 191 kts 60°
2026-04-30 00:08 47.34941 -122.15682 4818 ft 178 kts 41°
2026-04-30 00:08 47.35892 -122.14585 4562 ft 173 kts 36°
2026-04-30 00:08 47.37030 -122.14095 4275 ft 173 kts 359°
2026-04-30 00:08 47.38141 -122.14721 4067 ft 175 kts 332°
2026-04-30 00:09 47.39163 -122.15668 3829 ft 175 kts 326°
2026-04-30 00:09 47.40132 -122.16744 3577 ft 172 kts 322°
2026-04-30 00:09 47.41066 -122.17823 3334 ft 170 kts 322°
2026-04-30 00:09 47.41949 -122.18850 3159 ft 152 kts 322°
2026-04-30 00:10 47.42751 -122.19781 2996 ft 145 kts 322°
2026-04-30 00:10 47.43545 -122.20700 2736 ft 141 kts 322°
2026-04-30 00:10 47.44289 -122.21561 2475 ft 134 kts 322°
2026-04-30 00:10 47.45012 -122.22399 2215 ft 130 kts 322°
2026-04-30 00:11 47.45705 -122.23203 1961 ft 127 kts 322°
2026-04-30 00:11 47.46397 -122.24007 1707 ft 125 kts 322°
2026-04-30 00:11 47.47070 -122.24791 1460 ft 123 kts 322°
2026-04-30 00:11 47.47739 -122.25573 1208 ft 121 kts 322°
2026-04-30 00:12 47.48392 -122.26333 960 ft 119 kts 323°
2026-04-30 00:12 47.49097 -122.27008 731 ft 122 kts 329°
2026-04-30 00:12 47.49838 -122.27617 509 ft 123 kts 331°
2026-04-30 00:12 47.50586 -122.28234 335 ft 121 kts 330°
2026-04-30 00:13 47.51312 -122.28849 150 ft 122 kts 330°
2026-04-30 00:13 47.52032 -122.29459 52 ft 115 kts 330°
2026-04-30 00:13 47.52685 -122.30009 26 ft 92 kts 330°
2026-04-30 00:13 47.53141 -122.30394 26 ft 63 kts 330°
2026-04-30 00:14 47.53475 -122.30677 26 ft 48 kts 330°
2026-04-30 00:14 47.53642 -122.30818 26 ft 16 kts 330°
2026-04-30 00:14 47.53708 -122.30790 26 ft 10 kts 60°
2026-04-30 00:14 47.53744 -122.30697 26 ft 11 kts 60°
2026-04-30 00:15 47.53771 -122.30652 26 ft 5 kts
2026-04-30 00:15 47.53803 -122.30672 26 ft 5 kts 333°
2026-04-30 00:15 47.53828 -122.30657 26 ft 4 kts 50°
2026-04-30 00:15 47.53846 -122.30624 26 ft 4 kts 51°
2026-04-30 00:16 47.53867 -122.30587 26 ft 5 kts 51°
2026-04-30 00:16 47.53862 -122.30555 26 ft 4 kts 138°
2026-04-30 00:16 47.53855 -122.30547 26 ft 0 kts 140°